This is the latest recevied weather packets stored in our database for station/object N8XHB. If no packets are shown the sender has not sent any weather packets the latest 10 day(s).
| Time | Temp. | Humidity | Pressure | Rain* | Wind** | Luminosity | Snow |
|---|---|---|---|---|---|---|---|
| 1777931769 | 23.33° C | 32% | 998.9 hPa | 0 mm | - | 90 W/m² | - |
| 1777931467 | 23.33° C | 32% | 999 hPa | 0 mm | - | 105 W/m² | - |
| 1777931163 | 23.33° C | 32% | 998.9 hPa | 0 mm | - | 115 W/m² | - |
| 1777930859 | 23.33° C | 31% | 999.1 hPa | 0 mm | - | 102 W/m² | - |
| 1777930556 | 23.33° C | 32% | 999.2 hPa | 0 mm | - | 90 W/m² | - |
| 1777930253 | 23.33° C | 31% | 999.2 hPa | 0 mm | - | 97 W/m² | - |
| 1777929949 | 23.33° C | 32% | 999.1 hPa | 0 mm | - | 107 W/m² | - |
| 1777929646 | 23.33° C | 31% | 999.4 hPa | 0 mm | - | 105 W/m² | - |
| 1777929343 | 23.33° C | 31% | 999.4 hPa | 0 mm | - | 101 W/m² | - |
| 1777929040 | 23.33° C | 31% | 999.4 hPa | 0 mm | - | 104 W/m² | - |
| 1777928737 | 23.33° C | 31% | 999.6 hPa | 0 mm | - | 104 W/m² | - |
| 1777928434 | 23.33° C | 31% | 999.6 hPa | 0 mm | - | 104 W/m² | - |
| 1777928132 | 23.33° C | 30% | 999.6 hPa | 0 mm | - | 103 W/m² | - |
| 1777927829 | 23.33° C | 30% | 999.8 hPa | 0 mm | - | 107 W/m² | - |
| 1777927527 | 23.33° C | 29% | 999.9 hPa | 0 mm | - | 108 W/m² | - |
| 1777927226 | 23.33° C | 29% | 999.9 hPa | 0 mm | - | 117 W/m² | - |
| 1777926924 | 23.33° C | 27% | 1000 hPa | 0 mm | - | 126 W/m² | - |
| 1777926621 | 23.33° C | 27% | 1000 hPa | 0 mm | - | 124 W/m² | - |
| 1777926316 | 23.89° C | 25% | 999.9 hPa | 0 mm | - | 122 W/m² | - |
| 1777926013 | 23.33° C | 27% | 999.8 hPa | 0 mm | - | 143 W/m² | - |
| 1777925710 | 23.33° C | 29% | 1000 hPa | 0 mm | - | 146 W/m² | - |
| 1777925408 | 23.33° C | 27% | 1000 hPa | 0 mm | - | 148 W/m² | - |
| 1777925104 | 23.33° C | 26% | 1000 hPa | 0 mm | - | 176 W/m² | - |
| 1777924801 | 23.89° C | 24% | 1000.2 hPa | 0 mm | - | 182 W/m² | - |
| 1777924497 | 23.33° C | 28% | 1000 hPa | 0 mm | - | 196 W/m² | - |
* Rain latest hour (hover to see other rain measurements)
** Current wind speed in m/s (hover to see current wind gust speed)